[Iaude] MPEC M66: 2017 BV236 [a=46.32,e=0.18,i=6.6,H=8.82]

mpec at cfa.harvard.edu mpec at cfa.harvard.edu
Wed Jun 26 22:39:08 EDT 2024


M.P.E.C. 2024-M66                                 Issued 2024 June 27, 02:37 UT

     The Minor Planet Electronic Circulars contain information on unusual
         minor planets, routine data on comets and natural satellites,
         and occasional editorial announcements.  They are published
    on behalf of Division F of the International Astronomical Union by the
          Minor Planet Center, Smithsonian Astrophysical Observatory,
                          Cambridge, MA 02138, U.S.A.
			  
             Prepared using the Tamkin Foundation Computer Network

                              MPC at CFA.HARVARD.EDU
            URL https://www.minorplanetcenter.net/    ISSN 1523-6714

                                   2017 BV236                                   


Additional Observations:
     K17BN6V 1C2016 04 02.39340712 24 03.10 -00 12 54.1                WEM066T09
     K17BN6V 1C2016 04 02.51519612 24 02.57 -00 12 50.7                WEM066T09
     K17BN6V 1C2016 06 05.31148812 20 52.21 +00 07 09.2                WEM066T09
     K17BN6V 1C2016 06 05.35611412 20 52.17 +00 07 09.4                WEM066T09
     K17BN6V 4C2019 04 03.44005 12 38 56.36 -01 21 33.3          25.1 i1EM066T09
     K17BN6V 4C2019 04 03.44273 12 38 56.35 -01 21 33.1          25.0 i1EM066T09
     K17BN6V 4C2019 04 03.46423 12 38 56.26 -01 21 32.5          25.0 i1EM066T09
     K17BN6V 4C2019 04 03.47225 12 38 56.21 -01 21 32.3          25.2 i1EM066T09

Observer details:
T09 Subaru Telescope, Maunakea.  Observers , H. Aihara, Y. AlSayyad, M. Ando,
    R. Armstrong, J. Bosch, E. Egami, H. Furusawa, J. Furusawa, S. Harasawa,
    Y. Harikane, B.-C. Hsieh, H. Ikeda, K. Ito, I. Iwata, T. Kodama, M. Koike,
    M. Kokubo, Y. Komiyama, X. Li, Y. Liang, Y.-T. Lin, R. H. Lupton, N. B.
    Lust, L. A. MacArthur, K. Mawatari, S. Mineo, H. Miyatake, S. Miyazaki, S.
    More, T. Morishima, H. Murayama, K. Nakajima, F. Nakata, A. J. Nishizawa,
    M. Oguri, N. Okabe, Y. Okura, Y. Ono, K. Osato, M. Ouchi, Y.-C. Pan, A. A.
    Plazas Malagon, P. A. Price, S. L. Reed, E. S. Rykoff, T. Shibuya, M.
    Simunovic, M. A. Strauss, K. Sugimori, Y. Suto, N. Suzuki, M. Takada, Y.
    Takagi, T. Takata, S. Takita, M. Tanaka, S. Tang, D. S. Taranu, T. Terai,
    Y. Toba, E. L. Turner, H. Uchiyama, B. Vijarnwannaluk, C. Z. Waters, Y.
    Yamada, N. Yamamoto, T. Yamashita.  Measurers S. Deen, H. Fukuyama.  8.3-m
    Subaru Telescope + CCD, 8.2-m f/2.0 reflector + CCD(HSC).

First and last observations above in comparison with prediction:
Residuals in seconds of arc (or two decimals in degrees), reference and Delta-T
160402 T09 0.11- 0.05-    190403 T09 0.24- 0.11-    MPO824945  +33692 days

Orbital elements:
2017 BV236                                                                      
Epoch 2024 Mar. 31.0 TT = JDT 2460400.5                 Alexandersen            
M 305.82822              (2000.0)            P               Q                  
n   0.00312636     Peri.  102.82569     -0.00471575     +0.99964929             
a  46.3208414      Node   166.82064     -0.95608577     +0.00312953             
e   0.1831418      Incl.    6.56287     -0.29304907     -0.02629660             
P 315              H    8.82          G   0.15           U   5                  
Residuals in seconds of arc
160402 T09  0.0   0.0     170128 T09  0.1+  0.1+    170223 T09  0.0   0.4+
160402 T09  0.0   0.1-    170202 T09  0.0   0.2-    170223 T09  0.1+  0.1-
160605 T09  0.1-  0.0     170202 T09  0.0   0.0     170223 T09  0.3+  0.1-
160605 T09  0.1+  0.0     170202 T09  0.0   0.1-    190403 T09  0.0   0.1-
170128 T09  0.1-  0.3-    170202 T09  0.2-  0.1+    190403 T09  0.0   0.1+
170128 T09  0.1+  0.1+    170223 T09  0.2-  0.1+    190403 T09  0.1+  0.0
170128 T09  0.1-  0.2+    170223 T09  0.0   0.0     190403 T09  0.1-  0.0

Ephemeris:
2017 BV236               a,e,i = 46.32, 0.18, 7                  q = 37.8376
Date    TT    R. A. (2000) Decl.     Delta      r    Elong.  Phase     V
2024 05 28    13 01 03.2 -02 57 08  41.8832 42.5186   128.3     1.1    25.2
...
2024 06 12    13 00 34.1 -02 54 50  42.0914 42.5119   113.8     1.3    25.3
...
2024 06 20    13 00 25.8 -02 54 25  42.2140 42.5083   106.2     1.3    25.3
...
2024 06 26    13 00 23.0 -02 54 29  42.3094 42.5056   100.5     1.3    25.3
2024 06 27    13 00 22.8 -02 54 31  42.3255 42.5051    99.5     1.4    25.3
2024 06 28    13 00 22.7 -02 54 34  42.3417 42.5047    98.5     1.4    25.3
...
2024 07 04    13 00 24.0 -02 55 03  42.4394 42.5020    92.8     1.4    25.3
...
2024 07 12    13 00 30.4 -02 56 13  42.5704 42.4984    85.3     1.4    25.3
...
2024 07 27    13 00 57.0 -02 59 50  42.8098 42.4916    71.1     1.3    25.3

M. P. C. Staff               (C) Copyright 2024 MPC           M.P.E.C. 2024-M66





More information about the Iaude mailing list